Albany, NY

9:10 AM EDT on August 23, 2017 (GMT -0400)
Albany International

Weather History for KALB - May, 2013

Change the Weather History Date:

Wednesday, May 15, 2013

  Actual Average Record
Temperature  
Mean Temperature 49 °F 58 °F  
Max Temperature 65 °F 69 °F 93 °F (1900)
Min Temperature 32 °F 47 °F 31 °F (1969)
Degree Days  
Heating Degree Days 16 8  
Month to date heating degree days 106 144  
Since 1 July heating degree days 6168 6537  
Cooling Degree Days 0 1  
Month to date cooling degree days 1 4  
Year to date cooling degree days 1 8  
Moisture  
Dew Point 40 °F    
Average Humidity 67    
Maximum Humidity 89    
Minimum Humidity 44    
Precipitation  
Precipitation 0.08 in 0.11 in 2.02 in (1938)
Month to date precipitation 0.95 1.63  
Year to date precipitation 9.04 12.80  
Snow  
Snow 0.00 in 0.00 in 0.00 in ()
Month to date snowfall 0.0 0.1  
Since 1 July snowfall 51.4 60.3  
Snow Depth 0.00 in    
Sea Level Pressure  
Sea Level Pressure 29.84 in    
Wind  
Wind Speed 8 mph (South)    
Max Wind Speed 25 mph    
Max Gust Speed 35 mph    
Visibility 10 miles    
Events Fog , Rain , Thunderstorm    
T = Trace of Precipitation, MM = Missing Value Source: NWS Daily Summary

Daily Weather History Graph

Daily Weather History Graph

Search for Another Location

Airport or City:

Trip Planner

Search our weather history database for the weather conditions in past years. The results will help you decide how hot, cold, wet, or windy it might be!

Date:

Astronomy

May. 15, 2013 Rise Set
Actual Time 5:32 AM EDT 8:11 PM EDT
Civil Twilight 5:00 AM EDT 8:43 PM EDT
Nautical Twilight 4:19 AM EDT 9:24 PM EDT
Astronomical Twilight 3:33 AM EDT 10:11 PM EDT
Moon 10:06 AM EDT (5/15) No Moon Set
Length of Visible Light 15h 43m
Length of Day
14h 38m
Waxing Crescent, 26% of the Moon is Illuminated
May 15
Waxing Crescent
May 18
First Quarter
May 25
Full
May 31
Last Quarter
Jun 8
New

Hourly Weather History & Observations

Time (EDT) Temp. Dew Point Humidity Pressure Visibility Wind Dir Wind Speed Gust Speed Precip Events Conditions
12:51 AM 39.0 °F 30.9 °F 73% 30.05 in 10.0 mi Calm Calm - N/A   Partly Cloudy
1:51 AM 36.0 °F 30.9 °F 82% 30.05 in 10.0 mi Calm Calm - N/A   Clear
2:51 AM 37.0 °F 30.9 °F 79% 30.05 in 10.0 mi Calm Calm - N/A   Clear
3:51 AM 36.0 °F 30.9 °F 82% 30.04 in 10.0 mi Calm Calm - N/A   Clear
4:51 AM 35.1 °F 30.9 °F 85% 30.03 in 10.0 mi Calm Calm - N/A   Partly Cloudy
5:51 AM 34.0 °F 30.9 °F 89% 30.02 in 10.0 mi Calm Calm - N/A Fog Patches of Fog
6:46 AM 37.4 °F 35.6 °F 93% 30.02 in 10.0 mi Calm Calm - N/A   Mostly Cloudy
6:51 AM 39.0 °F 35.1 °F 86% 30.02 in 10.0 mi Calm Calm - N/A   Mostly Cloudy
7:51 AM 46.9 °F 34.0 °F 61% 29.99 in 10.0 mi Calm Calm - N/A   Scattered Clouds
8:51 AM 51.1 °F 30.0 °F 44% 29.96 in 10.0 mi SSE 11.5 mph 23.0 mph N/A   Mostly Cloudy
9:51 AM 53.1 °F 32.0 °F 45% 29.94 in 10.0 mi SSE 8.1 mph - N/A   Overcast
10:51 AM 54.0 °F 34.0 °F 47% 29.92 in 10.0 mi South 12.7 mph 17.3 mph N/A   Overcast
11:51 AM 55.9 °F 35.1 °F 45% 29.89 in 10.0 mi South 13.8 mph - 0.00 in Rain Light Rain
12:51 PM 55.0 °F 37.9 °F 53% 29.81 in 10.0 mi South 19.6 mph 34.5 mph 0.00 in Rain Light Rain
1:51 PM 52.0 °F 46.0 °F 80% 29.80 in 10.0 mi South 11.5 mph 21.9 mph 0.02 in   Overcast
2:41 PM 53.6 °F 48.2 °F 82% 29.78 in 10.0 mi South 10.4 mph 25.3 mph 0.01 in Rain , Thunderstorm Light Thunderstorms and Rain
2:51 PM 53.1 °F 48.9 °F 86% 29.73 in 6.0 mi South 18.4 mph 27.6 mph 0.02 in Rain , Thunderstorm Thunderstorms and Rain
3:13 PM 53.6 °F 48.2 °F 82% 29.70 in 10.0 mi SSE 13.8 mph 25.3 mph 0.04 in Rain Light Rain
3:51 PM 55.0 °F 48.0 °F 77% 29.65 in 10.0 mi SSE 15.0 mph 23.0 mph 0.04 in   Mostly Cloudy
4:51 PM 61.0 °F 48.0 °F 62% 29.68 in 10.0 mi South 15.0 mph 21.9 mph N/A   Scattered Clouds
5:51 PM 64.9 °F 48.9 °F 56% 29.62 in 10.0 mi South 9.2 mph 23.0 mph N/A   Scattered Clouds
6:51 PM 64.0 °F 46.9 °F 54% 29.61 in 10.0 mi South 13.8 mph 24.2 mph N/A   Scattered Clouds
7:51 PM 64.0 °F 48.0 °F 56% 29.60 in 10.0 mi South 12.7 mph 21.9 mph N/A   Scattered Clouds
8:51 PM 63.0 °F 50.0 °F 63% 29.65 in 10.0 mi South 8.1 mph - N/A   Mostly Cloudy
9:51 PM 59.0 °F 50.0 °F 72% 29.68 in 10.0 mi South 5.8 mph - N/A   Partly Cloudy
10:51 PM 60.1 °F 48.0 °F 64% 29.68 in 10.0 mi West 4.6 mph - N/A   Partly Cloudy
11:51 PM 53.1 °F 48.0 °F 83% 29.70 in 10.0 mi Calm Calm - N/A   Partly Cloudy